| time (UTC) | temp C | wind direction | speed KPH | gust KPH | rain 1hr cm | rain 24hr cm | rain mn cm | humidity % | barometer mb |
| 20260504044536 | 11 | 280 | 0.0 | 0.0 | 0.00 | 0.00 | 0.00 | 66 | 1008.5 |
| 20260504043023 | 11 | 280 | 0.0 | 0.0 | 0.00 | 0.00 | 0.00 | 63 | 1008.6 |
| 20260504041559 | 12 | 280 | 0.0 | 0.0 | 0.00 | 0.00 | 0.00 | 59 | 1008.4 |
| 20260504040103 | 13 | 280 | 0.0 | 0.0 | 0.00 | 0.00 | 0.00 | 56 | 1008.4 |
| 20260504034545 | 14 | 280 | 0.0 | 0.0 | 0.00 | 0.00 | 0.00 | 54 | 1008.3 |
| 20260504033049 | 15 | 280 | 0.0 | 0.0 | 0.00 | 0.00 | 0.00 | 48 | 1008.2 |
| 20260504031519 | 17 | 280 | 0.0 | 0.0 | 0.00 | 0.00 | 0.00 | 46 | 1008.1 |
| 20260504030019 | 18 | 280 | 0.0 | 0.0 | 0.00 | 0.00 | 0.00 | 37 | 1008.0 |
| 20260504024501 | 19 | 280 | 0.0 | 0.0 | 0.00 | 0.00 | 0.00 | 36 | 1007.9 |
| 20260504023101 | 20 | 280 | 1.6 | 0.0 | 0.00 | 0.00 | 0.00 | 34 | 1007.9 |
| 20260504021541 | 21 | 280 | 4.8 | 0.0 | 0.00 | 0.00 | 0.00 | 34 | 1008.0 |
| 20260504020040 | 21 | 280 | 4.8 | 0.0 | 0.00 | 0.00 | 0.00 | 34 | 1008.1 |
| 20260504014521 | 22 | 280 | 6.4 | 0.0 | 0.00 | 0.00 | 0.00 | 33 | 1008.1 |
| 20260504013028 | 22 | 279 | 4.8 | 0.0 | 0.00 | 0.00 | 0.00 | 33 | 1008.2 |
| 20260504011501 | 22 | 280 | 6.4 | 0.0 | 0.00 | 0.00 | 0.00 | 33 | 1008.3 |
| 20260504010109 | 22 | 281 | 9.7 | 0.0 | 0.00 | 0.00 | 0.00 | 32 | 1008.5 |
| 20260504004541 | 22 | 283 | 11.3 | 0.0 | 0.00 | 0.00 | 0.00 | 31 | 1008.7 |
| 20260504003039 | 23 | 251 | 6.4 | 0.0 | 0.00 | 0.00 | 0.00 | 29 | 1008.7 |
| 20260504001521 | 23 | 271 | 8.0 | 0.0 | 0.00 | 0.00 | 0.00 | 29 | 1008.8 |
| 20260504000020 | 23 | 278 | 8.0 | 0.0 | 0.00 | 0.00 | 0.00 | 29 | 1008.9 |
| 20260503234502 | 23 | 284 | 11.3 | 0.0 | 0.00 | 0.00 | 0.00 | 29 | 1009.0 |
| 20260503233001 | 23 | 222 | 6.4 | 0.0 | 0.00 | 0.00 | 0.00 | 28 | 1009.1 |
| 20260503231542 | 23 | 285 | 9.7 | 0.0 | 0.00 | 0.00 | 0.00 | 31 | 1009.2 |
| 20260503230041 | 23 | 234 | 6.4 | 0.0 | 0.00 | 0.00 | 0.00 | 27 | 1009.2 |
| 20260503224522 | 23 | 284 | 8.0 | 0.0 | 0.00 | 0.00 | 0.00 | 28 | 1009.6 |
| 20260503223020 | 23 | 281 | 8.0 | 0.0 | 0.00 | 0.00 | 0.00 | 27 | 1009.7 |
| 20260503221501 | 23 | 294 | 11.3 | 0.0 | 0.00 | 0.00 | 0.00 | 28 | 1009.9 |
| 20260503220112 | 23 | 312 | 8.0 | 0.0 | 0.00 | 0.00 | 0.00 | 29 | 1010.0 |
| 20260503214540 | 23 | 286 | 9.7 | 0.0 | 0.00 | 0.00 | 0.00 | 29 | 1010.2 |
| 20260503213041 | 23 | 296 | 11.3 | 0.0 | 0.00 | 0.00 | 0.00 | 28 | 1010.4 |
| 20260503211521 | 23 | 276 | 9.7 | 0.0 | 0.00 | 0.00 | 0.00 | 25 | 1010.6 |
| 20260503210019 | 22 | 290 | 11.3 | 0.0 | 0.00 | 0.00 | 0.00 | 27 | 1010.7 |
| 20260503204503 | 23 | 294 | 11.3 | 0.0 | 0.00 | 0.00 | 0.00 | 27 | 1010.8 |
| 20260503203059 | 23 | 304 | 4.8 | 0.0 | 0.00 | 0.00 | 0.00 | 33 | 1010.9 |
| 20260503201540 | 23 | 286 | 4.8 | 0.0 | 0.00 | 0.00 | 0.00 | 32 | 1011.1 |
| 20260503200037 | 23 | 273 | 4.8 | 0.0 | 0.00 | 0.00 | 0.00 | 28 | 1011.3 |
| 20260503194525 | 23 | 210 | 4.8 | 0.0 | 0.00 | 0.00 | 0.00 | 27 | 1011.4 |
| 20260503193014 | 23 | 291 | 3.2 | 0.0 | 0.00 | 0.00 | 0.00 | 30 | 1011.6 |
| 20260503191600 | 21 | 227 | 4.8 | 0.0 | 0.00 | 0.00 | 0.00 | 35 | 1011.8 |
| 20260503190053 | 22 | 201 | 4.8 | 0.0 | 0.00 | 0.00 | 0.00 | 37 | 1012.0 |
| 20260503184532 | 21 | 202 | 4.8 | 0.0 | 0.00 | 0.00 | 0.00 | 39 | 1012.1 |
| 20260503183036 | 21 | 216 | 3.2 | 0.0 | 0.00 | 0.00 | 0.00 | 42 | 1012.4 |
| 20260503181524 | 21 | 225 | 1.6 | 0.0 | 0.00 | 0.00 | 0.00 | 44 | 1012.5 |
| 20260503180009 | 20 | 242 | 3.2 | 0.0 | 0.00 | 0.00 | 0.00 | 44 | 1012.6 |
| 20260503174555 | 20 | 279 | 1.6 | 0.0 | 0.00 | 0.00 | 0.00 | 44 | 1012.8 |
| 20260503173055 | 19 | 280 | 1.6 | 0.0 | 0.00 | 0.00 | 0.00 | 43 | 1012.9 |
| 20260503171529 | 18 | 281 | 0.0 | 0.0 | 0.00 | 0.00 | 0.00 | 45 | 1013.0 |
| 20260503100105 | 5 | 289 | 0.0 | 0.0 | 0.00 | 0.00 | 0.00 | 86 | 1013.7 |
| 20260503081521 | 6 | 289 | 0.0 | 0.0 | 0.00 | 0.00 | 0.00 | 82 | 1013.1 |
| 20260503071524 | 8 | 289 | 0.0 | 0.0 | 0.00 | 0.00 | 0.00 | 80 | 1013.0 |
| 20260503060109 | 10 | 289 | 0.0 | 0.0 | 0.00 | 0.00 | 0.00 | 73 | 1012.9 |
| 20260503054539 | 10 | 289 | 0.0 | 0.0 | 0.00 | 0.00 | 0.00 | 72 | 1012.9 |
| 20260503053030 | 11 | 289 | 0.0 | 0.0 | 0.00 | 0.00 | 0.00 | 70 | 1012.9 |